Data No, UTC Date,UTC Time,Latitude,Longitude,Course(deg),Temp(degC),Sal(psu),pH
559,2021/9/13,9:18,42-36.88N,141-37.03E,211,20.37,32.9712,8.21
560,2021/9/13,9:19,42-36.63N,141-36.89E,192,20.229,33.0508,8.2
561,2021/9/13,9:20,42-36.35N,141-36.96E,160,20.255,33.2998,8.2
562,2021/9/13,9:21,42-36.09N,141-37.13E,154,20.229,33.468,8.22
563,2021/9/13,9:22,42-35.80N,141-37.31E,155,20.285,33.5029,8.23
564,2021/9/13,9:23,42-35.51N,141-37.49E,155,20.348,33.6208,8.24
565,2021/9/13,9:24,42-35.21N,141-37.68E,155,20.382,33.6971,8.24
566,2021/9/13,9:25,42-34.91N,141-37.87E,155,20.411,33.7148,8.27
567,2021/9/13,9:26,42-34.60N,141-38.05E,156,20.414,33.7312,8.28
568,2021/9/13,9:27,42-34.28N,141-38.23E,156,20.424,33.7487,8.29
569,2021/9/13,9:28,42-33.97N,141-38.41E,157,20.43,33.7718,8.29
570,2021/9/13,9:29,42-33.64N,141-38.60E,157,20.435,33.7719,8.3
571,2021/9/13,9:30,42-33.33N,141-38.80E,148,20.441,33.7932,8.3
572,2021/9/13,9:31,42-33.11N,141-39.14E,128,20.434,33.8038,8.3
573,2021/9/13,9:32,42-32.91N,141-39.52E,124,20.448,33.8021,8.3
574,2021/9/13,9:33,42-32.71N,141-39.92E,123,20.439,33.795,8.3
575,2021/9/13,9:34,42-32.51N,141-40.32E,124,20.425,33.7855,8.3
576,2021/9/13,9:35,42-32.30N,141-40.72E,125,20.438,33.787,8.31
577,2021/9/13,9:36,42-32.08N,141-41.12E,126,20.47,33.7931,8.31
578,2021/9/13,9:37,42-31.86N,141-41.52E,127,20.429,33.7871,8.3
579,2021/9/13,9:38,42-31.64N,141-41.92E,127,20.429,33.7425,8.3
580,2021/9/13,9:39,42-31.41N,141-42.32E,127,20.421,33.7126,8.3
581,2021/9/13,9:40,42-31.18N,141-42.73E,127,20.395,33.7423,8.3
582,2021/9/13,9:41,42-30.95N,141-43.13E,127,20.353,33.7929,8.31
583,2021/9/13,9:42,42-30.72N,141-43.53E,127,20.309,33.8336,8.31
584,2021/9/13,9:43,42-30.48N,141-43.95E,127,20.312,33.8727,8.31
585,2021/9/13,9:44,42-30.25N,141-44.36E,127,20.295,33.8747,8.32
586,2021/9/13,9:45,42-30.01N,141-44.78E,128,20.266,33.8674,8.32
587,2021/9/13,9:46,42-29.76N,141-45.21E,127,20.22,33.8621,8.32
588,2021/9/13,9:47,42-29.53N,141-45.62E,127,20.15,33.8645,8.32
589,2021/9/13,9:48,42-29.28N,141-46.05E,127,20.082,33.8667,8.32
590,2021/9/13,9:49,42-29.04N,141-46.46E,127,20.016,33.8652,8.31
591,2021/9/13,9:50,42-28.80N,141-46.89E,127,19.943,33.8676,8.32
592,2021/9/13,9:51,42-28.56N,141-47.31E,127,19.897,33.8642,8.31
593,2021/9/13,9:52,42-28.32N,141-47.73E,127,19.917,33.8583,8.32
594,2021/9/13,9:53,42-28.08N,141-48.15E,127,19.896,33.8251,8.32
595,2021/9/13,9:54,42-27.84N,141-48.58E,127,19.865,33.8086,8.32
596,2021/9/13,9:55,42-27.60N,141-49.00E,127,19.86,33.8064,8.31
597,2021/9/13,9:56,42-27.36N,141-49.41E,127,19.886,33.8239,8.31
598,2021/9/13,9:57,42-27.13N,141-49.84E,127,19.897,33.8426,8.31
599,2021/9/13,9:58,42-26.88N,141-50.27E,127,19.883,33.8536,8.31
600,2021/9/13,9:59,42-26.65N,141-50.69E,127,19.846,33.8545,8.31
601,2021/9/13,10:00,42-26.41N,141-51.12E,127,19.813,33.8712,8.32
602,2021/9/13,10:01,42-26.17N,141-51.53E,127,19.78,33.8777,8.32
603,2021/9/13,10:02,42-25.93N,141-51.97E,127,19.781,33.8841,8.33
604,2021/9/13,10:03,42-25.70N,141-52.39E,127,19.82,33.8841,8.32
605,2021/9/13,10:04,42-25.45N,141-52.82E,126,19.867,33.8843,8.32
606,2021/9/13,10:05,42-25.22N,141-53.24E,127,19.899,33.8772,8.32
607,2021/9/13,10:06,42-24.98N,141-53.67E,127,19.896,33.8758,8.32
608,2021/9/13,10:07,42-24.73N,141-54.10E,127,19.878,33.8674,8.32
609,2021/9/13,10:08,42-24.49N,141-54.53E,127,19.869,33.8723,8.32
610,2021/9/13,10:09,42-24.25N,141-54.96E,126,19.87,33.8776,8.32
611,2021/9/13,10:10,42-24.01N,141-55.40E,126,19.898,33.8769,8.32
612,2021/9/13,10:11,42-23.77N,141-55.82E,127,19.93,33.877,8.32
613,2021/9/13,10:12,42-23.52N,141-56.26E,127,19.95,33.8777,8.32
614,2021/9/13,10:13,42-23.28N,141-56.68E,127,19.99,33.8776,8.32
615,2021/9/13,10:14,42-23.04N,141-57.12E,127,20.029,33.8684,8.32
616,2021/9/13,10:15,42-22.80N,141-57.54E,127,20.052,33.8648,8.32
617,2021/9/13,10:16,42-22.55N,141-57.98E,127,20.07,33.8593,8.31
618,2021/9/13,10:17,42-22.31N,141-58.41E,127,20.071,33.8555,8.32
619,2021/9/13,10:18,42-22.07N,141-58.85E,127,20.081,33.8566,8.31
620,2021/9/13,10:19,42-21.83N,141-59.27E,127,20.109,33.8534,8.31
621,2021/9/13,10:20,42-21.58N,141-59.71E,127,20.133,33.8542,8.31
622,2021/9/13,10:21,42-21.34N,142-00.14E,127,20.156,33.8562,8.31
623,2021/9/13,10:22,42-21.09N,142-00.57E,127,20.171,33.8601,8.31
624,2021/9/13,10:23,42-20.85N,142-01.00E,127,20.18,33.858,8.31
625,2021/9/13,10:24,42-20.60N,142-01.44E,127,20.187,33.8688,8.31
626,2021/9/13,10:25,42-20.36N,142-01.86E,127,20.189,33.8683,8.31
627,2021/9/13,10:26,42-20.10N,142-02.31E,127,20.208,33.8745,8.31
628,2021/9/13,10:27,42-19.87N,142-02.73E,127,20.211,33.8726,8.31
629,2021/9/13,10:28,42-19.62N,142-03.16E,128,20.21,33.8692,8.32
630,2021/9/13,10:29,42-19.36N,142-03.60E,128,20.214,33.8761,8.32
631,2021/9/13,10:30,42-19.12N,142-04.02E,127,20.222,33.8751,8.32
632,2021/9/13,10:31,42-18.87N,142-04.46E,128,20.225,33.8814,8.32
633,2021/9/13,10:32,42-18.62N,142-04.88E,128,20.215,33.8854,8.32
634,2021/9/13,10:33,42-18.37N,142-05.32E,127,20.217,33.8908,8.31
635,2021/9/13,10:34,42-18.12N,142-05.74E,127,20.232,33.8938,8.32
636,2021/9/13,10:35,42-17.88N,142-06.17E,127,20.246,33.8939,8.32
637,2021/9/13,10:36,42-17.62N,142-06.60E,128,20.25,33.8999,8.32
638,2021/9/13,10:37,42-17.40N,142-07.04E,123,20.271,33.902,8.32
639,2021/9/13,10:38,42-17.19N,142-07.50E,120,20.307,33.9118,8.33
640,2021/9/13,10:39,42-16.99N,142-07.97E,120,20.343,33.9127,8.33
641,2021/9/13,10:40,42-16.79N,142-08.43E,120,20.393,33.9138,8.33
642,2021/9/13,10:41,42-16.58N,142-08.90E,120,20.459,33.9136,8.33
643,2021/9/13,10:42,42-16.39N,142-09.35E,120,20.477,33.9026,8.32
644,2021/9/13,10:43,42-16.19N,142-09.82E,120,20.46,33.8842,8.32
645,2021/9/13,10:44,42-15.98N,142-10.29E,120,20.436,33.8675,8.32
646,2021/9/13,10:45,42-15.78N,142-10.76E,120,20.418,33.8671,8.32
647,2021/9/13,10:46,42-15.58N,142-11.21E,120,20.45,33.8728,8.32
648,2021/9/13,10:47,42-15.38N,142-11.68E,120,20.477,33.8742,8.32
649,2021/9/13,10:48,42-15.18N,142-12.14E,120,20.489,33.8773,8.32
650,2021/9/13,10:49,42-14.97N,142-12.61E,120,20.441,33.8703,8.31
651,2021/9/13,10:50,42-14.77N,142-13.07E,120,20.496,33.8467,8.31
652,2021/9/13,10:51,42-14.57N,142-13.53E,121,20.537,33.8137,8.31
653,2021/9/13,10:52,42-14.36N,142-13.98E,121,20.542,33.8138,8.31
654,2021/9/13,10:53,42-14.15N,142-14.45E,121,20.547,33.8134,8.31
655,2021/9/13,10:54,42-13.95N,142-14.90E,120,20.552,33.816,8.3
656,2021/9/13,10:55,42-13.75N,142-15.37E,121,20.523,33.8165,8.3
657,2021/9/13,10:56,42-13.55N,142-15.82E,121,20.517,33.8256,8.3
658,2021/9/13,10:57,42-13.34N,142-16.28E,121,20.537,33.8217,8.3
659,2021/9/13,10:58,42-13.14N,142-16.73E,121,20.522,33.8429,8.3
660,2021/9/13,10:59,42-12.93N,142-17.20E,120,20.488,33.8639,8.3
661,2021/9/13,11:00,42-12.73N,142-17.65E,120,20.459,33.8721,8.3
662,2021/9/13,11:01,42-12.53N,142-18.10E,121,20.442,33.8747,8.3
663,2021/9/13,11:02,42-12.32N,142-18.57E,120,20.424,33.8775,8.3
664,2021/9/13,11:03,42-12.12N,142-19.02E,120,20.408,33.8807,8.3
665,2021/9/13,11:04,42-11.92N,142-19.48E,120,20.398,33.8843,8.3
666,2021/9/13,11:05,42-11.72N,142-19.94E,120,20.388,33.8769,8.3
667,2021/9/13,11:06,42-11.52N,142-20.40E,120,20.377,33.8814,8.3
668,2021/9/13,11:07,42-11.32N,142-20.86E,120,20.372,33.8761,8.3
669,2021/9/13,11:08,42-11.12N,142-21.32E,120,20.355,33.8754,8.3
670,2021/9/13,11:09,42-10.92N,142-21.78E,120,20.343,33.8763,8.3
671,2021/9/13,11:10,42-10.71N,142-22.24E,120,20.328,33.8706,8.3
672,2021/9/13,11:11,42-10.51N,142-22.71E,120,20.297,33.8691,8.3
673,2021/9/13,11:12,42-10.31N,142-23.17E,119,20.273,33.8669,8.3
674,2021/9/13,11:13,42-10.11N,142-23.64E,120,20.259,33.8705,8.3
675,2021/9/13,11:14,42-09.92N,142-24.10E,119,20.259,33.8728,8.3
676,2021/9/13,11:15,42-09.72N,142-24.56E,120,20.245,33.8751,8.3
677,2021/9/13,11:16,42-09.52N,142-25.03E,119,20.233,33.8847,8.3
678,2021/9/13,11:17,42-09.32N,142-25.49E,120,20.226,33.8901,8.3
679,2021/9/13,11:18,42-09.12N,142-25.97E,119,20.224,33.8931,8.3
680,2021/9/13,11:19,42-08.92N,142-26.43E,119,20.229,33.8938,8.3
681,2021/9/13,11:20,42-08.72N,142-26.90E,119,20.237,33.9073,8.3
682,2021/9/13,11:21,42-08.51N,142-27.38E,119,20.223,33.8977,8.3
683,2021/9/13,11:22,42-08.32N,142-27.83E,120,20.208,33.8999,8.3
684,2021/9/13,11:23,42-08.11N,142-28.30E,120,20.191,33.8946,8.3
685,2021/9/13,11:24,42-07.91N,142-28.76E,120,20.148,33.8929,8.3
686,2021/9/13,11:25,42-07.71N,142-29.23E,120,20.13,33.8858,8.3
687,2021/9/13,11:26,42-07.51N,142-29.69E,120,20.101,33.8907,8.3
688,2021/9/13,11:27,42-07.31N,142-30.16E,120,20.088,33.8848,8.34
689,2021/9/13,11:28,42-07.10N,142-30.62E,119,20.048,33.8791,8.33
690,2021/9/13,11:29,42-06.90N,142-31.08E,120,20.019,33.8751,8.33
691,2021/9/13,11:30,42-06.70N,142-31.54E,120,20.005,33.8692,8.33
692,2021/9/13,11:31,42-06.50N,142-32.01E,120,20.003,33.8634,8.33
693,2021/9/13,11:32,42-06.30N,142-32.47E,120,20.016,33.8721,8.33
694,2021/9/13,11:33,42-06.09N,142-32.95E,120,20.011,33.8743,8.32
695,2021/9/13,11:34,42-05.89N,142-33.40E,120,20.005,33.8704,8.32
696,2021/9/13,11:35,42-05.68N,142-33.87E,120,19.983,33.8721,8.32
697,2021/9/13,11:36,42-05.48N,142-34.33E,120,19.973,33.8702,8.32
698,2021/9/13,11:37,42-05.28N,142-34.79E,120,19.976,33.8699,8.32
699,2021/9/13,11:38,42-05.08N,142-35.26E,120,19.947,33.8632,8.31
700,2021/9/13,11:39,42-04.88N,142-35.71E,120,19.94,33.8642,8.32
701,2021/9/13,11:40,42-04.67N,142-36.18E,120,19.946,33.8598,8.32
702,2021/9/13,11:41,42-04.47N,142-36.63E,121,19.935,33.8595,8.32
703,2021/9/13,11:42,42-04.26N,142-37.10E,121,19.92,33.8656,8.32
704,2021/9/13,11:43,42-04.05N,142-37.54E,121,19.926,33.8661,8.31
705,2021/9/13,11:44,42-03.84N,142-38.01E,121,19.916,33.8717,8.31
706,2021/9/13,11:45,42-03.63N,142-38.45E,121,19.934,33.8738,8.31
707,2021/9/13,11:46,42-03.42N,142-38.92E,121,19.942,33.8713,8.31
708,2021/9/13,11:47,42-03.21N,142-39.37E,121,19.939,33.8683,8.31
709,2021/9/13,11:48,42-03.00N,142-39.83E,121,19.931,33.8733,8.31
710,2021/9/13,11:49,42-02.79N,142-40.28E,121,19.924,33.8732,8.31
711,2021/9/13,11:50,42-02.58N,142-40.73E,121,19.911,33.8762,8.31
712,2021/9/13,11:51,42-02.37N,142-41.19E,121,19.903,33.8726,8.31
713,2021/9/13,11:52,42-02.16N,142-41.63E,121,19.893,33.8801,8.31
714,2021/9/13,11:53,42-01.95N,142-42.09E,121,19.875,33.8764,8.31
715,2021/9/13,11:54,42-01.75N,142-42.54E,121,19.856,33.8837,8.31
716,2021/9/13,11:55,42-01.54N,142-42.99E,121,19.809,33.8822,8.31
717,2021/9/13,11:56,42-01.31N,142-43.51E,121,19.767,33.8769,8.31
718,2021/9/13,11:57,42-01.10N,142-43.96E,121,19.741,33.8799,8.31
719,2021/9/13,11:58,42-00.90N,142-44.41E,121,19.73,33.8806,8.3
720,2021/9/13,11:59,42-00.69N,142-44.86E,121,19.707,33.879,8.3
721,2021/9/13,12:00,42-00.48N,142-45.31E,122,19.708,33.8823,8.3
722,2021/9/13,12:01,42-00.28N,142-45.74E,122,19.709,33.879,8.3
723,2021/9/13,12:02,42-00.08N,142-46.17E,122,19.69,33.8787,8.3
724,2021/9/13,12:03,41-59.89N,142-46.55E,122,19.663,33.8832,8.3
725,2021/9/13,12:04,41-59.68N,142-46.99E,122,19.624,33.8786,8.3
726,2021/9/13,12:05,41-59.48N,142-47.41E,122,19.611,33.8804,8.3
727,2021/9/13,12:06,41-59.28N,142-47.83E,122,19.568,33.8755,8.3
728,2021/9/13,12:07,41-59.07N,142-48.25E,123,19.556,33.8832,8.3
729,2021/9/13,12:08,41-58.87N,142-48.66E,124,19.522,33.8829,8.3
730,2021/9/13,12:09,41-58.65N,142-49.07E,125,19.505,33.8876,8.3
731,2021/9/13,12:10,41-58.44N,142-49.48E,125,19.473,33.8834,8.3
732,2021/9/13,12:11,41-58.23N,142-49.89E,124,19.477,33.8885,8.3
733,2021/9/13,12:12,41-58.02N,142-50.29E,124,19.492,33.888,8.3
734,2021/9/13,12:13,41-57.80N,142-50.70E,125,19.486,33.8825,8.3
735,2021/9/13,12:14,41-57.60N,142-51.09E,125,19.48,33.8786,8.3
736,2021/9/13,12:15,41-57.38N,142-51.50E,124,19.467,33.8796,8.3
737,2021/9/13,12:16,41-57.17N,142-51.90E,125,19.468,33.8752,8.3
738,2021/9/13,12:17,41-56.96N,142-52.31E,125,19.467,33.8752,8.3
739,2021/9/13,12:18,41-56.75N,142-52.71E,125,19.457,33.8793,8.3
740,2021/9/13,12:19,41-56.53N,142-53.11E,125,19.457,33.877,8.3
741,2021/9/13,12:20,41-56.33N,142-53.51E,124,19.437,33.8738,8.3
742,2021/9/13,12:21,41-56.12N,142-53.92E,125,19.396,33.8659,8.3
743,2021/9/13,12:22,41-55.91N,142-54.32E,125,19.354,33.8659,8.3
744,2021/9/13,12:23,41-55.70N,142-54.73E,124,19.357,33.8691,8.3
745,2021/9/13,12:24,41-55.49N,142-55.15E,122,19.362,33.8609,8.3
746,2021/9/13,12:25,41-55.30N,142-55.57E,121,19.278,33.8558,8.3
747,2021/9/13,12:26,41-55.10N,142-56.00E,121,19.189,33.8464,8.3
748,2021/9/13,12:27,41-54.91N,142-56.41E,121,19.16,33.8366,8.3
749,2021/9/13,12:28,41-54.72N,142-56.84E,121,19.194,33.831,8.3
750,2021/9/13,12:29,41-54.53N,142-57.25E,121,19.291,33.8441,8.3
751,2021/9/13,12:30,41-54.34N,142-57.67E,121,19.33,33.8683,8.3
752,2021/9/13,12:31,41-54.14N,142-58.10E,121,19.352,33.8857,8.3
753,2021/9/13,12:32,41-53.96N,142-58.51E,121,19.398,33.8905,8.3
754,2021/9/13,12:33,41-53.76N,142-58.93E,121,19.384,33.8914,8.3
755,2021/9/13,12:34,41-53.58N,142-59.34E,121,19.402,33.8917,8.3
756,2021/9/13,12:35,41-53.39N,142-59.75E,121,19.427,33.8976,8.3
757,2021/9/13,12:36,41-53.20N,143-00.17E,120,19.393,33.894,8.3
758,2021/9/13,12:37,41-53.03N,143-00.59E,116,19.391,33.8953,8.3
759,2021/9/13,12:38,41-52.88N,143-01.04E,113,19.412,33.8903,8.3
760,2021/9/13,12:39,41-52.74N,143-01.47E,113,19.626,33.8787,8.3
761,2021/9/13,12:40,41-52.59N,143-01.92E,112,19.782,33.8754,8.3
762,2021/9/13,12:41,41-52.46N,143-02.36E,113,20.072,33.8685,8.3
763,2021/9/13,12:42,41-52.31N,143-02.81E,112,20.183,33.8672,8.3
764,2021/9/13,12:43,41-52.17N,143-03.25E,113,20.243,33.8558,8.3
765,2021/9/13,12:44,41-52.03N,143-03.71E,112,20.306,33.8416,8.3
766,2021/9/13,12:45,41-51.89N,143-04.15E,112,20.401,33.8437,8.3
767,2021/9/13,12:46,41-51.73N,143-04.67E,113,20.468,33.8416,8.3
768,2021/9/13,12:47,41-51.59N,143-05.11E,112,20.45,33.8452,8.3
769,2021/9/13,12:48,41-51.45N,143-05.56E,112,20.422,33.8586,8.3
770,2021/9/13,12:49,41-51.31N,143-06.02E,113,20.379,33.8692,8.3
771,2021/9/13,12:50,41-51.17N,143-06.46E,112,20.395,33.8717,8.3
772,2021/9/13,12:51,41-51.02N,143-06.92E,113,20.431,33.8664,8.3
773,2021/9/13,12:52,41-50.88N,143-07.37E,112,20.444,33.8747,8.3
774,2021/9/13,12:53,41-50.74N,143-07.83E,112,20.44,33.8746,8.3
775,2021/9/13,12:54,41-50.59N,143-08.29E,112,20.428,33.8796,8.31
776,2021/9/13,12:55,41-50.45N,143-08.75E,113,20.403,33.8807,8.31
777,2021/9/13,12:56,41-50.30N,143-09.22E,112,20.358,33.8742,8.31
778,2021/9/13,12:57,41-50.16N,143-09.68E,113,20.326,33.877,8.31
779,2021/9/13,12:58,41-50.01N,143-10.15E,112,20.288,33.8758,8.31
780,2021/9/13,12:59,41-49.87N,143-10.61E,112,20.269,33.8683,8.32
781,2021/9/13,13:00,41-49.73N,143-11.07E,113,20.258,33.8678,8.31
782,2021/9/13,13:01,41-49.58N,143-11.55E,113,20.262,33.869,8.31
783,2021/9/13,13:02,41-49.43N,143-12.02E,112,20.266,33.8703,8.31
784,2021/9/13,13:03,41-49.30N,143-12.44E,112,20.267,33.8764,8.31
785,2021/9/13,13:04,41-49.18N,143-12.92E,105,20.282,33.8811,8.31
786,2021/9/13,13:05,41-49.12N,143-13.42E,96,20.266,33.8816,8.31
787,2021/9/13,13:06,41-49.10N,143-13.91E,91,20.229,33.8932,8.31
788,2021/9/13,13:07,41-49.13N,143-14.43E,88,20.196,33.888,8.31
789,2021/9/13,13:08,41-49.12N,143-14.95E,88,20.179,33.8876,8.31
790,2021/9/13,13:09,41-49.14N,143-15.45E,87,20.164,33.8902,8.31
791,2021/9/13,13:10,41-49.16N,143-15.97E,87,20.147,33.8948,8.31
792,2021/9/13,13:11,41-49.18N,143-16.48E,87,20.122,33.8923,8.31
793,2021/9/13,13:12,41-49.19N,143-17.00E,88,20.088,33.8951,8.32
794,2021/9/13,13:13,41-49.21N,143-17.50E,86,20.047,33.8941,8.31
795,2021/9/13,13:14,41-49.24N,143-18.03E,84,19.973,33.9029,8.31
796,2021/9/13,13:15,41-49.29N,143-18.54E,83,19.938,33.9013,8.31
797,2021/9/13,13:16,41-49.33N,143-19.06E,83,19.814,33.9089,8.31
798,2021/9/13,13:17,41-49.40N,143-19.56E,78,19.579,33.9154,8.32
799,2021/9/13,13:18,41-49.49N,143-20.06E,74,19.345,33.908,8.31
800,2021/9/13,13:19,41-49.61N,143-20.54E,70,18.87,33.9024,8.31
801,2021/9/13,13:20,41-49.76N,143-21.01E,65,18.598,33.8676,8.31
802,2021/9/13,13:21,41-49.94N,143-21.46E,61,17.804,33.8834,8.31
803,2021/9/13,13:22,41-50.14N,143-21.90E,58,16.89,33.8415,8.3
804,2021/9/13,13:23,41-50.35N,143-22.32E,53,16.835,33.5701,8.31
805,2021/9/13,13:24,41-50.59N,143-22.69E,46,16.841,33.1862,8.31
806,2021/9/13,13:25,41-50.88N,143-23.01E,37,16.77,32.9714,8.31
807,2021/9/13,13:26,41-51.19N,143-23.28E,32,16.641,32.9107,8.31
808,2021/9/13,13:27,41-51.52N,143-23.55E,31,16.455,32.8821,8.31
809,2021/9/13,13:28,41-51.83N,143-23.79E,30,16.262,32.8669,8.31
810,2021/9/13,13:29,41-52.16N,143-24.05E,30,16.115,32.8641,8.31
811,2021/9/13,13:30,41-52.47N,143-24.30E,29,16.086,32.8654,8.31
812,2021/9/13,13:31,41-52.80N,143-24.55E,30,16.21,32.861,8.31
813,2021/9/13,13:32,41-53.12N,143-24.80E,30,16.196,32.8448,8.32
814,2021/9/13,13:33,41-53.43N,143-25.05E,30,16.184,32.8226,8.31
815,2021/9/13,13:34,41-53.75N,143-25.29E,30,16.194,32.8081,8.31
816,2021/9/13,13:35,41-54.07N,143-25.55E,30,16.201,32.7994,8.3
817,2021/9/13,13:36,41-54.39N,143-25.80E,30,16.186,32.7933,8.31
818,2021/9/13,13:37,41-54.72N,143-26.05E,31,16.171,32.797,8.31
819,2021/9/13,13:38,41-55.05N,143-26.32E,31,16.188,32.805,8.31
820,2021/9/13,13:39,41-55.36N,143-26.57E,31,16.204,32.8103,8.31
821,2021/9/13,13:40,41-55.67N,143-26.82E,31,16.2,32.8094,8.32
822,2021/9/13,13:41,41-56.00N,143-27.08E,30,16.167,32.804,8.32
823,2021/9/13,13:42,41-56.32N,143-27.33E,30,16.135,32.7953,8.33
824,2021/9/13,13:43,41-56.65N,143-27.59E,30,16.127,32.7935,8.33
825,2021/9/13,13:44,41-56.97N,143-27.85E,30,16.124,32.7926,8.33
826,2021/9/13,13:45,41-57.29N,143-28.10E,30,16.14,32.7922,8.33
827,2021/9/13,13:46,41-57.62N,143-28.35E,30,16.134,32.7895,8.33
828,2021/9/13,13:47,41-57.94N,143-28.60E,30,16.134,32.7924,8.33
829,2021/9/13,13:48,41-58.27N,143-28.86E,30,16.186,32.7967,8.34
830,2021/9/13,13:49,41-58.58N,143-29.11E,30,16.283,32.7968,8.34
831,2021/9/13,13:50,41-58.91N,143-29.36E,29,16.438,32.7949,8.34
832,2021/9/13,13:51,41-59.22N,143-29.61E,29,16.536,32.7905,8.34
833,2021/9/13,13:52,41-59.55N,143-29.85E,28,16.587,32.7724,8.34
834,2021/9/13,13:53,41-59.87N,143-30.09E,28,16.651,32.7467,8.34
835,2021/9/13,13:54,42-00.20N,143-30.34E,28,16.748,32.7211,8.34
836,2021/9/13,13:55,42-00.53N,143-30.57E,28,16.79,32.7011,8.34
837,2021/9/13,13:56,42-00.86N,143-30.82E,28,16.809,32.6902,8.34
838,2021/9/13,13:57,42-01.21N,143-31.07E,28,16.829,32.6683,8.36
839,2021/9/13,13:58,42-01.56N,143-31.31E,28,16.794,32.6507,8.36
840,2021/9/13,13:59,42-01.88N,143-31.55E,28,16.653,32.6301,8.36
841,2021/9/13,14:00,42-02.16N,143-31.76E,28,16.591,32.6388,8.36
842,2021/9/13,14:01,42-02.49N,143-31.99E,27,16.674,32.6331,8.36
843,2021/9/13,14:02,42-02.82N,143-32.24E,29,16.785,32.6222,8.37
844,2021/9/13,14:03,42-03.15N,143-32.48E,28,16.897,32.5863,8.37
845,2021/9/13,14:04,42-03.48N,143-32.72E,29,16.843,32.5585,8.37
846,2021/9/13,14:05,42-03.80N,143-32.97E,29,16.772,32.5209,8.37
847,2021/9/13,14:06,42-04.12N,143-33.21E,29,16.702,32.5185,8.37
848,2021/9/13,14:07,42-04.45N,143-33.46E,28,16.64,32.531,8.37
849,2021/9/13,14:08,42-04.77N,143-33.70E,29,16.631,32.5388,8.38
850,2021/9/13,14:09,42-05.10N,143-33.95E,29,16.698,32.5321,8.39
851,2021/9/13,14:10,42-05.42N,143-34.19E,29,16.739,32.5145,8.39
852,2021/9/13,14:11,42-05.75N,143-34.44E,28,16.754,32.5169,8.38
853,2021/9/13,14:12,42-06.07N,143-34.68E,28,16.586,32.5394,8.38
854,2021/9/13,14:13,42-06.40N,143-34.93E,28,16.543,32.6339,8.38
855,2021/9/13,14:14,42-06.73N,143-35.18E,29,16.506,32.6552,8.39
856,2021/9/13,14:15,42-07.06N,143-35.42E,28,16.414,32.68,8.4
857,2021/9/13,14:16,42-07.39N,143-35.66E,29,16.525,32.7084,8.39
858,2021/9/13,14:17,42-07.71N,143-35.91E,29,16.605,32.6991,8.4
859,2021/9/13,14:18,42-08.04N,143-36.16E,29,16.659,32.6919,8.39
860,2021/9/13,14:19,42-08.36N,143-36.39E,29,16.61,32.6805,8.4
861,2021/9/13,14:20,42-08.69N,143-36.64E,30,16.46,32.7051,8.39
862,2021/9/13,14:21,42-09.00N,143-36.89E,29,16.131,32.7529,8.39
863,2021/9/13,14:22,42-09.34N,143-37.14E,28,15.956,32.8546,8.39
864,2021/9/13,14:23,42-09.64N,143-37.38E,30,15.968,32.9018,8.39
865,2021/9/13,14:24,42-09.97N,143-37.64E,30,16.002,32.915,8.4
866,2021/9/13,14:25,42-10.28N,143-37.90E,31,16.08,32.9155,8.39
867,2021/9/13,14:26,42-10.61N,143-38.16E,31,16.138,32.92,8.4
868,2021/9/13,14:27,42-10.92N,143-38.41E,31,16.17,32.9241,8.4
869,2021/9/13,14:28,42-11.24N,143-38.67E,30,16.197,32.9288,8.46
870,2021/9/13,14:29,42-11.56N,143-38.92E,30,16.23,32.9336,8.45
871,2021/9/13,14:30,42-11.90N,143-39.17E,30,16.239,32.939,8.44
872,2021/9/13,14:31,42-12.20N,143-39.43E,31,16.236,32.9396,8.45
873,2021/9/13,14:32,42-12.51N,143-39.70E,31,16.188,32.9397,8.45
874,2021/9/13,14:33,42-12.83N,143-39.95E,30,16.144,32.9255,8.44
875,2021/9/13,14:34,42-13.15N,143-40.21E,30,16.158,32.9174,8.44
876,2021/9/13,14:35,42-13.48N,143-40.47E,31,16.33,32.904,8.44
877,2021/9/13,14:36,42-13.79N,143-40.73E,30,16.496,32.9095,8.44
878,2021/9/13,14:37,42-14.12N,143-40.99E,30,16.606,32.9052,8.44
879,2021/9/13,14:38,42-14.44N,143-41.24E,30,16.639,32.9055,8.44
880,2021/9/13,14:39,42-14.77N,143-41.50E,30,16.634,32.9162,8.44
881,2021/9/13,14:40,42-15.09N,143-41.75E,29,16.636,32.9152,8.44
882,2021/9/13,14:41,42-15.43N,143-42.01E,29,16.695,32.9044,8.44
883,2021/9/13,14:42,42-15.75N,143-42.26E,29,16.757,32.8926,8.44
884,2021/9/13,14:43,42-16.10N,143-42.52E,29,16.836,32.8683,8.44
885,2021/9/13,14:44,42-16.41N,143-42.77E,29,16.925,32.8477,8.45
886,2021/9/13,14:45,42-16.74N,143-43.02E,29,16.977,32.8325,8.45
887,2021/9/13,14:46,42-17.05N,143-43.27E,29,17.03,32.8248,8.45
888,2021/9/13,14:47,42-17.39N,143-43.52E,29,17.015,32.8095,8.44
889,2021/9/13,14:48,42-17.71N,143-43.78E,30,17.021,32.8028,8.44
890,2021/9/13,14:49,42-18.04N,143-44.04E,30,17.034,32.7977,8.44
891,2021/9/13,14:50,42-18.36N,143-44.29E,30,17.022,32.7902,8.44
892,2021/9/13,14:51,42-18.69N,143-44.55E,30,16.996,32.7823,8.44
893,2021/9/13,14:52,42-19.02N,143-44.81E,30,16.977,32.7818,8.43
894,2021/9/13,14:53,42-19.35N,143-45.06E,30,16.941,32.7818,8.42
895,2021/9/13,14:54,42-19.68N,143-45.32E,30,16.963,32.7838,8.42
896,2021/9/13,14:55,42-20.00N,143-45.58E,30,16.965,32.7882,8.44
897,2021/9/13,14:56,42-20.33N,143-45.83E,30,16.949,32.7912,8.45
898,2021/9/13,14:57,42-20.66N,143-46.10E,30,16.902,32.7872,8.44
899,2021/9/13,14:58,42-20.98N,143-46.35E,30,16.874,32.793,8.43
900,2021/9/13,14:59,42-21.31N,143-46.61E,30,16.751,32.7969,8.43
901,2021/9/13,15:00,42-21.65N,143-46.88E,30,16.573,32.7957,8.43
902,2021/9/13,15:01,42-21.96N,143-47.13E,30,16.413,32.801,8.42
903,2021/9/13,15:02,42-22.29N,143-47.39E,30,16.275,32.7975,8.42
904,2021/9/13,15:03,42-22.61N,143-47.65E,31,16.25,32.7933,8.42
905,2021/9/13,15:04,42-22.93N,143-47.90E,30,16.198,32.7856,8.42
906,2021/9/13,15:05,42-23.23N,143-48.14E,30,16.041,32.7919,8.42
907,2021/9/13,15:06,42-23.54N,143-48.39E,30,15.948,32.8088,8.41
908,2021/9/13,15:07,42-23.85N,143-48.63E,30,15.921,32.8236,8.41
909,2021/9/13,15:08,42-24.14N,143-48.87E,30,15.939,32.8548,8.41
910,2021/9/13,15:09,42-24.44N,143-49.10E,30,15.986,32.8637,8.41
911,2021/9/13,15:10,42-24.74N,143-49.34E,30,16.012,32.8704,8.4
912,2021/9/13,15:11,42-25.04N,143-49.57E,30,15.995,32.8821,8.4
913,2021/9/13,15:12,42-25.35N,143-49.81E,30,15.96,32.9023,8.4
914,2021/9/13,15:13,42-25.65N,143-50.05E,30,15.893,32.9065,8.4
915,2021/9/13,15:14,42-25.96N,143-50.29E,30,15.76,32.915,8.4
916,2021/9/13,15:15,42-26.25N,143-50.52E,30,15.743,32.9195,8.4
917,2021/9/13,15:16,42-26.56N,143-50.77E,30,15.735,32.9236,8.4
918,2021/9/13,15:17,42-26.86N,143-51.00E,29,15.737,32.9311,8.4
919,2021/9/13,15:18,42-27.17N,143-51.24E,30,15.755,32.9424,8.4
920,2021/9/13,15:19,42-27.46N,143-51.48E,30,15.761,32.9655,8.4
921,2021/9/13,15:20,42-27.77N,143-51.72E,30,15.752,32.9826,8.4
922,2021/9/13,15:21,42-28.07N,143-51.96E,30,15.757,32.9853,8.4
923,2021/9/13,15:22,42-28.37N,143-52.21E,31,15.747,32.9917,8.39
924,2021/9/13,15:23,42-28.67N,143-52.44E,30,15.734,32.995,8.39
925,2021/9/13,15:24,42-28.97N,143-52.69E,30,15.718,33.002,8.39
926,2021/9/13,15:25,42-29.27N,143-52.93E,30,15.686,33.007,8.39